London, United Kingdom

5:24 PM BST on May 22, 2017 (GMT +0100)
Heathrow

Weather History for EGLL - February, 2014

Change the Weather History Date:

Tuesday, February 4, 2014

  Actual Average Record
Temperature  
Mean Temperature 44 °F -  
Max Temperature 48 °F 47 °F 60 °F (2004)
Min Temperature 39 °F 35 °F 21 °F (2012)
Degree Days  
Heating Degree Days 22    
Moisture  
Dew Point 38 °F    
Average Humidity 76    
Maximum Humidity 87    
Minimum Humidity 50    
Precipitation  
Precipitation 0.02 in - - ()
Sea Level Pressure  
Sea Level Pressure 29.42 in    
Wind  
Wind Speed 12 mph ()    
Max Wind Speed 24 mph    
Max Gust Speed 33 mph    
Visibility 9.0 miles    
Events Rain    
Averages and records for this station are not official NWS values.
T = Trace of Precipitation, MM = Missing Value Source: Averaged Metar Reports

Daily Weather History Graph

Daily Weather History Graph

Search for Another Location

Airport or City:

Trip Planner

Search our weather history database for the weather conditions in past years. The results will help you decide how hot, cold, wet, or windy it might be!

Date:

Astronomy

Feb. 04, 2014 Rise Set
Actual Time 7:35 AM GMT 4:56 PM GMT
Civil Twilight 6:59 AM GMT 5:32 PM GMT
Nautical Twilight 6:19 AM GMT 6:12 PM GMT
Astronomical Twilight 5:40 AM GMT 6:51 PM GMT
Moon 9:23 AM GMT (2/4) 11:20 PM GMT (2/4)
Length of Visible Light 10h 32m
Length of Day
9h 21m
Waxing Crescent, 27% of the Moon is Illuminated
Feb 4
Waxing Crescent
Feb 6
First Quarter
Feb 14
Full
Feb 22
Last Quarter
Mar 1
New

Hourly Weather History & Observations

Time (GMT) Temp. Windchill Dew Point Humidity Pressure Visibility Wind Dir Wind Speed Gust Speed Precip Events Conditions
12:00 AM 44 °F - 38 °F 72% 29.44 in 16 mi SE 9.2 mph - - Rain Light Rain Showers
12:20 AM 42.8 °F 37.5 °F 39.2 °F 87% 29.42 in 6.2 mi SSE 9.2 mph - N/A Rain Light Rain
12:50 AM 42.8 °F 37.0 °F 39.2 °F 87% 29.42 in 6.2 mi SE 10.4 mph - N/A Rain Light Rain
1:00 AM 43 °F - 39 °F 82% 29.42 in 15 mi SE 11.5 mph - - Rain Light Rain Showers
1:20 AM 42.8 °F 36.6 °F 39.2 °F 87% 29.42 in 6.2 mi SE 11.5 mph - N/A Rain Light Rain
1:50 AM 42.8 °F 37.0 °F 39.2 °F 87% 29.39 in 6.2 mi SSE 10.4 mph - N/A   Unknown
2:00 AM 43 °F - 40 °F 84% 29.40 in 17 mi SSE 10.4 mph - - Rain Rain
2:20 AM 42.8 °F 37.0 °F 39.2 °F 87% 29.42 in 6.2 mi South 10.4 mph - N/A   Mostly Cloudy
2:50 AM 44.6 °F 38.8 °F 39.2 °F 81% 29.42 in 6.2 mi SSW 11.5 mph - N/A   Mostly Cloudy
3:00 AM 44 °F - 40 °F 80% 29.42 in 16 mi SSW 11.5 mph - - Rain Rain
3:20 AM 42.8 °F 35.8 °F 39.2 °F 87% 29.44 in 6.2 mi WSW 13.8 mph - N/A   Partly Cloudy
3:50 AM 42.8 °F 36.6 °F 37.4 °F 81% 29.44 in - WSW 11.5 mph - N/A   Clear
4:00 AM 42 °F - 37 °F 77% 29.45 in 25 mi WSW 12.7 mph - - Rain Rain
4:20 AM 42.8 °F 36.6 °F 37.4 °F 81% 29.47 in - SW 11.5 mph - N/A   Clear
4:50 AM 41.0 °F 33.9 °F 37.4 °F 87% 29.47 in - SW 12.7 mph - N/A   Clear
5:00 AM 42 °F - 36 °F 72% 29.49 in 28 mi SW 12.7 mph - -   Mostly Cloudy
5:20 AM 41.0 °F 34.7 °F 35.6 °F 81% 29.47 in - SW 10.4 mph - N/A   Clear
5:50 AM 39.2 °F 33.0 °F 35.6 °F 87% 29.50 in - SSW 9.2 mph - N/A   Clear
6:00 AM 40 °F - 36 °F 80% 29.51 in 19 mi SSW 10.4 mph - -  
6:20 AM 39.2 °F 33.0 °F 35.6 °F 87% 29.50 in - SSW 9.2 mph - N/A   Clear
6:50 AM 39.2 °F 34.2 °F 35.6 °F 87% 29.50 in - South 6.9 mph - N/A   Clear
7:00 AM 41 °F - 35 °F 73% 29.52 in 22 mi South 8.1 mph - -   Scattered Clouds
7:20 AM 39.2 °F 33.6 °F 35.6 °F 87% 29.50 in - South 8.1 mph - N/A   Clear
7:50 AM 41.0 °F 35.8 °F 33.8 °F 76% 29.53 in 6.2 mi South 8.1 mph - N/A   Partly Cloudy
8:00 AM 42 °F - 34 °F 64% 29.54 in 22 mi South 9.2 mph - -   Mostly Cloudy
8:20 AM 41.0 °F 35.2 °F 35.6 °F 81% 29.53 in 6.2 mi SSW 9.2 mph - N/A   Scattered Clouds
8:50 AM 42.8 °F 38.0 °F 35.6 °F 76% 29.56 in 6.2 mi SW 8.1 mph - N/A   Scattered Clouds
9:00 AM 43 °F - 36 °F 67% 29.56 in 19 mi SW 9.2 mph - -   Partly Cloudy
9:20 AM 42.8 °F 38.6 °F 37.4 °F 81% 29.56 in 6.2 mi SW 6.9 mph - N/A   Scattered Clouds
9:50 AM 42.8 °F 36.6 °F 39.2 °F 87% 29.56 in 6.2 mi South 11.5 mph - N/A Rain Light Rain Showers
10:00 AM 44 °F - 38 °F 74% 29.56 in 12 mi South 9.2 mph - - Rain Light Rain Showers
10:20 AM 42.8 °F 37.0 °F 39.2 °F 87% 29.56 in 6.2 mi SSW 10.4 mph - N/A   Scattered Clouds
10:50 AM 44.6 °F 38.4 °F 39.2 °F 81% 29.53 in 6.2 mi South 12.7 mph - N/A   Scattered Clouds
11:00 AM 46 °F - 40 °F 71% 29.55 in 19 mi South 11.5 mph - - Rain Rain
11:20 AM 46.4 °F 39.5 °F 39.2 °F 76% 29.53 in 6.2 mi South 17.3 mph - N/A   Scattered Clouds
11:50 AM 46.4 °F 39.8 °F 39.2 °F 76% 29.53 in 6.2 mi South 16.1 mph - N/A   Scattered Clouds
12:00 PM 47 °F - 38 °F 63% 29.54 in 19 mi South 15.0 mph - -   Scattered Clouds
12:20 PM 46.4 °F 39.5 °F 37.4 °F 71% 29.53 in 6.2 mi South 17.3 mph - N/A   Scattered Clouds
12:50 PM 48.2 °F - 37.4 °F 66% 29.53 in 6.2 mi South 17.3 mph 28.8 mph N/A   Partly Cloudy
1:00 PM 47 °F - 37 °F 59% 29.53 in 19 mi South 16.1 mph - -   Scattered Clouds
1:20 PM 48.2 °F - 37.4 °F 66% 29.50 in 6.2 mi South 12.7 mph - N/A   Scattered Clouds
1:50 PM 48.2 °F - 35.6 °F 62% 29.50 in 6.2 mi South 19.6 mph - N/A   Scattered Clouds
2:00 PM 48 °F - 35 °F 50% 29.50 in 25 mi South 19.6 mph - -   Scattered Clouds
2:20 PM 46.4 °F 39.2 °F 37.4 °F 71% 29.47 in 6.2 mi South 18.4 mph - N/A   Scattered Clouds
2:50 PM 46.4 °F 39.2 °F 37.4 °F 71% 29.47 in 6.2 mi South 18.4 mph - N/A   Scattered Clouds
3:00 PM 48 °F - 37 °F 57% 29.47 in 22 mi South 16.1 mph - -   Partly Cloudy
3:20 PM 46.4 °F 39.0 °F 37.4 °F 71% 29.44 in 6.2 mi South 19.6 mph - N/A   Scattered Clouds
3:50 PM 46.4 °F 39.0 °F 37.4 °F 71% 29.44 in 6.2 mi SSE 19.6 mph - N/A   Scattered Clouds
4:00 PM 46 °F - 37 °F 62% 29.45 in 19 mi SSE 16.1 mph - -   Scattered Clouds
4:20 PM 44.6 °F 37.4 °F 37.4 °F 76% 29.42 in 6.2 mi SSE 16.1 mph - N/A   Scattered Clouds
4:50 PM 44.6 °F 37.8 °F 37.4 °F 76% 29.42 in 6.2 mi SSE 15.0 mph - N/A   Scattered Clouds
5:00 PM 46 °F - 38 °F 63% 29.42 in 19 mi SE 16.1 mph - -   Scattered Clouds
5:20 PM 44.6 °F 37.8 °F 37.4 °F 76% 29.39 in 6.2 mi SSE 15.0 mph - N/A   Scattered Clouds
5:50 PM 46.4 °F 39.8 °F 37.4 °F 71% 29.36 in 6.2 mi SE 16.1 mph - N/A   Scattered Clouds
6:00 PM 46 °F - 37 °F 62% 29.37 in 19 mi SSE 18.4 mph - -   Mostly Cloudy
6:20 PM 46.4 °F 39.8 °F 37.4 °F 71% 29.36 in 6.2 mi SE 16.1 mph - N/A   Scattered Clouds
6:50 PM 46.4 °F 39.8 °F 37.4 °F 71% 29.33 in 6.2 mi SSE 16.1 mph - N/A   Mostly Cloudy
7:00 PM 46 °F - 38 °F 63% 29.33 in 19 mi SE 20.7 mph - -   Scattered Clouds
7:20 PM 46.4 °F 38.7 °F 37.4 °F 71% 29.30 in 6.2 mi SSE 20.7 mph - N/A   Mostly Cloudy
7:50 PM 46.4 °F 38.7 °F 37.4 °F 71% 29.27 in 6.2 mi SSE 20.7 mph 33.4 mph N/A   Mostly Cloudy
8:00 PM 47 °F - 37 °F 59% 29.28 in 22 mi SE 24.2 mph - -   Mostly Cloudy
8:20 PM 46.4 °F 38.1 °F 37.4 °F 71% 29.27 in 6.2 mi SSE 24.2 mph - N/A   Scattered Clouds
8:50 PM 46.4 °F 38.7 °F 39.2 °F 76% 29.24 in 6.2 mi SSE 20.7 mph 33.4 mph N/A Rain Light Rain
9:00 PM 46 °F - 39 °F 69% 29.26 in 9 mi SSE 24.2 mph - - Rain Light Rain Showers
9:20 PM 44.6 °F 36.1 °F 39.2 °F 81% 29.24 in 6.2 mi SSE 21.9 mph - N/A Rain Light Rain
9:50 PM 44.6 °F 36.4 °F 39.2 °F 81% 29.21 in 5.6 mi SSE 20.7 mph - N/A Rain Rain
10:00 PM 44 °F - 40 °F 82% 29.23 in 4 mi SSE 21.9 mph - - Rain Rain
10:20 PM 44.6 °F 36.4 °F 39.2 °F 81% 29.18 in 6.2 mi SSE 20.7 mph - N/A Rain Light Rain
10:50 PM 42.8 °F 34.0 °F 39.2 °F 87% 29.18 in 6.2 mi SSE 20.7 mph - N/A Rain Light Rain
11:00 PM 43 °F - 40 °F 84% 29.18 in 9 mi SE 21.9 mph - - Rain Light Rain
11:20 PM 42.8 °F 34.0 °F 39.2 °F 87% 29.15 in 6.2 mi SSE 20.7 mph - N/A Rain Light Rain
11:50 PM 42.8 °F 34.5 °F 39.2 °F 87% 29.12 in 5.0 mi SSE 18.4 mph - N/A Rain Rain